owner,sensor,date,latitude,longitude,sea_surface_height_above_sea_level,qcFlag 
COMPS,ioos:station:USF.COMPS:FHP:1,2019-07-01T00:54:00,28.1530,-82.8010,0.034,11111222 
COMPS,ioos:station:USF.COMPS:FHP:1,2019-07-01T01:54:00,28.1530,-82.8010,0.246,11111222 
COMPS,ioos:station:USF.COMPS:FHP:1,2019-07-01T02:54:00,28.1530,-82.8010,0.447,11111222 
COMPS,ioos:station:USF.COMPS:FHP:1,2019-07-01T03:42:00,28.1530,-82.8010,0.505,11111222 
COMPS,ioos:station:USF.COMPS:FHP:1,2019-07-01T04:54:00,28.1530,-82.8010,0.529,11111222 
COMPS,ioos:station:USF.COMPS:FHP:1,2019-07-01T05:54:00,28.1530,-82.8010,0.476,11111222 
COMPS,ioos:station:USF.COMPS:FHP:1,2019-07-01T06:54:00,28.1530,-82.8010,0.371,11111222 
COMPS,ioos:station:USF.COMPS:FHP:1,2019-07-01T07:54:00,28.1530,-82.8010,0.256,11111222 
COMPS,ioos:station:USF.COMPS:FHP:1,2019-07-01T08:54:00,28.1530,-82.8010,0.191,11111222 
COMPS,ioos:station:USF.COMPS:FHP:1,2019-07-01T09:54:00,28.1530,-82.8010,0.176,11111222 
COMPS,ioos:station:USF.COMPS:FHP:1,2019-07-01T10:54:00,28.1530,-82.8010,0.267,11111222 
COMPS,ioos:station:USF.COMPS:FHP:1,2019-07-01T11:54:00,28.1530,-82.8010,0.413,11111222 
COMPS,ioos:station:USF.COMPS:FHP:1,2019-07-01T12:54:00,28.1530,-82.8010,0.57,11111222 
COMPS,ioos:station:USF.COMPS:FHP:1,2019-07-01T13:54:00,28.1530,-82.8010,0.734,11111222 
COMPS,ioos:station:USF.COMPS:FHP:1,2019-07-01T15:54:00,28.1530,-82.8010,0.712,11111222 
COMPS,ioos:station:USF.COMPS:FHP:1,2019-07-01T16:54:00,28.1530,-82.8010,0.611,11111222 
COMPS,ioos:station:USF.COMPS:FHP:1,2019-07-01T17:54:00,28.1530,-82.8010,0.422,11111222 
COMPS,ioos:station:USF.COMPS:FHP:1,2019-07-01T18:54:00,28.1530,-82.8010,0.208,11111222 
COMPS,ioos:station:USF.COMPS:FHP:1,2019-07-01T19:54:00,28.1530,-82.8010,-0.009,11114222 
COMPS,ioos:station:USF.COMPS:FHP:1,2019-07-01T20:54:00,28.1530,-82.8010,-0.193,11114222 
COMPS,ioos:station:USF.COMPS:FHP:1,2019-07-01T21:54:00,28.1530,-82.8010,-0.317,11114222 
COMPS,ioos:station:USF.COMPS:FHP:1,2019-07-01T22:54:00,28.1530,-82.8010,-0.383,11114222 
COMPS,ioos:station:USF.COMPS:FHP:1,2019-07-01T23:54:00,28.1530,-82.8010,-0.361,11114222 
COMPS,ioos:station:USF.COMPS:FHP:1,2019-07-02T00:54:00,28.1530,-82.8010,-0.22,11114222 
COMPS,ioos:station:USF.COMPS:FHP:1,2019-07-02T01:54:00,28.1530,-82.8010,0.002,11111222 
COMPS,ioos:station:USF.COMPS:FHP:1,2019-07-02T02:54:00,28.1530,-82.8010,0.218,11111222 
COMPS,ioos:station:USF.COMPS:FHP:1,2019-07-02T03:54:00,28.1530,-82.8010,0.4,11111222 
COMPS,ioos:station:USF.COMPS:FHP:1,2019-07-02T04:54:00,28.1530,-82.8010,0.496,11111222 
COMPS,ioos:station:USF.COMPS:FHP:1,2019-07-02T05:54:00,28.1530,-82.8010,0.475,11111222 
COMPS,ioos:station:USF.COMPS:FHP:1,2019-07-02T06:54:00,28.1530,-82.8010,0.392,11111222 
COMPS,ioos:station:USF.COMPS:FHP:1,2019-07-02T07:54:00,28.1530,-82.8010,0.284,11111222 
COMPS,ioos:station:USF.COMPS:FHP:1,2019-07-02T08:48:00,28.1530,-82.8010,0.202,11111222 
COMPS,ioos:station:USF.COMPS:FHP:1,2019-07-02T09:54:00,28.1530,-82.8010,0.134,11111222 
COMPS,ioos:station:USF.COMPS:FHP:1,2019-07-02T10:54:00,28.1530,-82.8010,0.169,11111222 
COMPS,ioos:station:USF.COMPS:FHP:1,2019-07-02T11:54:00,28.1530,-82.8010,0.252,11111222 
COMPS,ioos:station:USF.COMPS:FHP:1,2019-07-02T12:54:00,28.1530,-82.8010,0.424,11111222 
COMPS,ioos:station:USF.COMPS:FHP:1,2019-07-02T13:54:00,28.1530,-82.8010,0.615,11111222 
COMPS,ioos:station:USF.COMPS:FHP:1,2019-07-02T14:54:00,28.1530,-82.8010,0.745,11111222 
COMPS,ioos:station:USF.COMPS:FHP:1,2019-07-02T15:54:00,28.1530,-82.8010,0.774,11111222 
COMPS,ioos:station:USF.COMPS:FHP:1,2019-07-02T16:54:00,28.1530,-82.8010,0.725,11111222 
COMPS,ioos:station:USF.COMPS:FHP:1,2019-07-02T17:54:00,28.1530,-82.8010,0.58,11111222 
COMPS,ioos:station:USF.COMPS:FHP:1,2019-07-02T18:54:00,28.1530,-82.8010,0.387,11111222 
COMPS,ioos:station:USF.COMPS:FHP:1,2019-07-02T19:54:00,28.1530,-82.8010,0.172,11111222 
COMPS,ioos:station:USF.COMPS:FHP:1,2019-07-02T20:54:00,28.1530,-82.8010,-0.042,11114222 
COMPS,ioos:station:USF.COMPS:FHP:1,2019-07-02T21:54:00,28.1530,-82.8010,-0.229,11114222 
COMPS,ioos:station:USF.COMPS:FHP:1,2019-07-02T22:54:00,28.1530,-82.8010,-0.343,11114222 
COMPS,ioos:station:USF.COMPS:FHP:1,2019-07-02T23:42:00,28.1530,-82.8010,-0.394,11114222 
COMPS,ioos:station:USF.COMPS:FHP:1,2019-07-03T00:54:00,28.1530,-82.8010,-0.353,11114222 
COMPS,ioos:station:USF.COMPS:FHP:1,2019-07-03T01:54:00,28.1530,-82.8010,-0.189,11114222 
COMPS,ioos:station:USF.COMPS:FHP:1,2019-07-03T02:54:00,28.1530,-82.8010,0.024,11111222 
COMPS,ioos:station:USF.COMPS:FHP:1,2019-07-03T03:54:00,28.1530,-82.8010,0.258,11111222 
COMPS,ioos:station:USF.COMPS:FHP:1,2019-07-03T04:54:00,28.1530,-82.8010,0.439,11111222 
COMPS,ioos:station:USF.COMPS:FHP:1,2019-07-03T05:54:00,28.1530,-82.8010,0.514,11111222 
COMPS,ioos:station:USF.COMPS:FHP:1,2019-07-03T06:54:00,28.1530,-82.8010,0.481,11111222 
COMPS,ioos:station:USF.COMPS:FHP:1,2019-07-03T07:54:00,28.1530,-82.8010,0.402,11111222 
COMPS,ioos:station:USF.COMPS:FHP:1,2019-07-03T08:54:00,28.1530,-82.8010,0.273,11111222 
COMPS,ioos:station:USF.COMPS:FHP:1,2019-07-03T09:54:00,28.1530,-82.8010,0.157,11111222 
COMPS,ioos:station:USF.COMPS:FHP:1,2019-07-03T10:54:00,28.1530,-82.8010,0.094,11111222 
COMPS,ioos:station:USF.COMPS:FHP:1,2019-07-03T11:54:00,28.1530,-82.8010,0.136,11111222 
COMPS,ioos:station:USF.COMPS:FHP:1,2019-07-03T12:54:00,28.1530,-82.8010,0.279,11111222 
COMPS,ioos:station:USF.COMPS:FHP:1,2019-07-03T13:54:00,28.1530,-82.8010,0.492,11111222 
COMPS,ioos:station:USF.COMPS:FHP:1,2019-07-03T14:54:00,28.1530,-82.8010,0.684,11111222 
COMPS,ioos:station:USF.COMPS:FHP:1,2019-07-03T15:54:00,28.1530,-82.8010,0.801,11111222 
COMPS,ioos:station:USF.COMPS:FHP:1,2019-07-03T16:54:00,28.1530,-82.8010,0.812,11111222 
COMPS,ioos:station:USF.COMPS:FHP:1,2019-07-03T17:54:00,28.1530,-82.8010,0.727,11111222 
COMPS,ioos:station:USF.COMPS:FHP:1,2019-07-03T18:54:00,28.1530,-82.8010,0.576,11111222 
COMPS,ioos:station:USF.COMPS:FHP:1,2019-07-03T19:54:00,28.1530,-82.8010,0.374,11111222 
COMPS,ioos:station:USF.COMPS:FHP:1,2019-07-03T20:54:00,28.1530,-82.8010,0.145,11111222 
COMPS,ioos:station:USF.COMPS:FHP:1,2019-07-03T21:54:00,28.1530,-82.8010,-0.097,11114222 
COMPS,ioos:station:USF.COMPS:FHP:1,2019-07-03T22:54:00,28.1530,-82.8010,-0.275,11114222 
COMPS,ioos:station:USF.COMPS:FHP:1,2019-07-03T23:54:00,28.1530,-82.8010,-0.381,11114222 
COMPS,ioos:station:USF.COMPS:FHP:1,2019-07-04T00:54:00,28.1530,-82.8010,-0.428,11114222 
COMPS,ioos:station:USF.COMPS:FHP:1,2019-07-04T01:54:00,28.1530,-82.8010,-0.366,11114222 
COMPS,ioos:station:USF.COMPS:FHP:1,2019-07-04T02:54:00,28.1530,-82.8010,-0.199,11114222 
COMPS,ioos:station:USF.COMPS:FHP:1,2019-07-04T03:54:00,28.1530,-82.8010,0.012,11111222 
COMPS,ioos:station:USF.COMPS:FHP:1,2019-07-04T04:54:00,28.1530,-82.8010,0.24,11111222 
COMPS,ioos:station:USF.COMPS:FHP:1,2019-07-04T05:54:00,28.1530,-82.8010,0.431,11111222 
COMPS,ioos:station:USF.COMPS:FHP:1,2019-07-04T06:54:00,28.1530,-82.8010,0.455,11111222 
COMPS,ioos:station:USF.COMPS:FHP:1,2019-07-04T07:54:00,28.1530,-82.8010,0.387,11111222 
COMPS,ioos:station:USF.COMPS:FHP:1,2019-07-04T08:54:00,28.1530,-82.8010,0.294,11111222 
COMPS,ioos:station:USF.COMPS:FHP:1,2019-07-04T09:48:00,28.1530,-82.8010,0.178,11111222 
COMPS,ioos:station:USF.COMPS:FHP:1,2019-07-04T10:54:00,28.1530,-82.8010,0.116,11111222 
COMPS,ioos:station:USF.COMPS:FHP:1,2019-07-04T11:54:00,28.1530,-82.8010,0.13,11111222 
COMPS,ioos:station:USF.COMPS:FHP:1,2019-07-04T12:54:00,28.1530,-82.8010,0.231,11111222 
COMPS,ioos:station:USF.COMPS:FHP:1,2019-07-04T13:54:00,28.1530,-82.8010,0.382,11111222 
COMPS,ioos:station:USF.COMPS:FHP:1,2019-07-04T14:54:00,28.1530,-82.8010,0.574,11111222 
COMPS,ioos:station:USF.COMPS:FHP:1,2019-07-04T15:54:00,28.1530,-82.8010,0.759,11111222 
COMPS,ioos:station:USF.COMPS:FHP:1,2019-07-04T16:54:00,28.1530,-82.8010,0.877,11111222 
COMPS,ioos:station:USF.COMPS:FHP:1,2019-07-04T17:54:00,28.1530,-82.8010,0.872,11111222 
COMPS,ioos:station:USF.COMPS:FHP:1,2019-07-04T18:54:00,28.1530,-82.8010,0.777,11111222 
COMPS,ioos:station:USF.COMPS:FHP:1,2019-07-04T19:54:00,28.1530,-82.8010,0.58,11111222 
COMPS,ioos:station:USF.COMPS:FHP:1,2019-07-04T20:54:00,28.1530,-82.8010,0.362,11111222 
COMPS,ioos:station:USF.COMPS:FHP:1,2019-07-04T21:54:00,28.1530,-82.8010,0.125,11111222 
COMPS,ioos:station:USF.COMPS:FHP:1,2019-07-04T22:54:00,28.1530,-82.8010,-0.095,11114222 
COMPS,ioos:station:USF.COMPS:FHP:1,2019-07-04T23:54:00,28.1530,-82.8010,-0.281,11114222 
COMPS,ioos:station:USF.COMPS:FHP:1,2019-07-05T00:54:00,28.1530,-82.8010,-0.382,11114222 
COMPS,ioos:station:USF.COMPS:FHP:1,2019-07-05T01:36:00,28.1530,-82.8010,-0.401,11114222 
COMPS,ioos:station:USF.COMPS:FHP:1,2019-07-05T02:54:00,28.1530,-82.8010,-0.292,11114222 
COMPS,ioos:station:USF.COMPS:FHP:1,2019-07-05T03:54:00,28.1530,-82.8010,-0.093,11114222 
COMPS,ioos:station:USF.COMPS:FHP:1,2019-07-05T04:54:00,28.1530,-82.8010,0.128,11111222 
COMPS,ioos:station:USF.COMPS:FHP:1,2019-07-05T05:54:00,28.1530,-82.8010,0.334,11111222 
COMPS,ioos:station:USF.COMPS:FHP:1,2019-07-05T06:48:00,28.1530,-82.8010,0.434,11111222 
COMPS,ioos:station:USF.COMPS:FHP:1,2019-07-05T07:54:00,28.1530,-82.8010,0.469,11111222 
COMPS,ioos:station:USF.COMPS:FHP:1,2019-07-05T08:54:00,28.1530,-82.8010,0.42,11111222 
COMPS,ioos:station:USF.COMPS:FHP:1,2019-07-05T09:48:00,28.1530,-82.8010,0.333,11111222 
COMPS,ioos:station:USF.COMPS:FHP:1,2019-07-05T10:54:00,28.1530,-82.8010,0.212,11111222 
COMPS,ioos:station:USF.COMPS:FHP:1,2019-07-05T11:54:00,28.1530,-82.8010,0.14,11111222 
COMPS,ioos:station:USF.COMPS:FHP:1,2019-07-05T12:48:00,28.1530,-82.8010,0.157,11111222 
COMPS,ioos:station:USF.COMPS:FHP:1,2019-07-05T13:54:00,28.1530,-82.8010,0.262,11111222 
COMPS,ioos:station:USF.COMPS:FHP:1,2019-07-05T14:54:00,28.1530,-82.8010,0.441,11111222 
COMPS,ioos:station:USF.COMPS:FHP:1,2019-07-05T15:54:00,28.1530,-82.8010,0.611,11111222 
COMPS,ioos:station:USF.COMPS:FHP:1,2019-07-05T16:54:00,28.1530,-82.8010,0.78,11111222 
COMPS,ioos:station:USF.COMPS:FHP:1,2019-07-05T17:54:00,28.1530,-82.8010,0.862,11111222 
COMPS,ioos:station:USF.COMPS:FHP:1,2019-07-05T18:54:00,28.1530,-82.8010,0.843,11111222 
COMPS,ioos:station:USF.COMPS:FHP:1,2019-07-05T19:54:00,28.1530,-82.8010,0.738,11111222 
COMPS,ioos:station:USF.COMPS:FHP:1,2019-07-05T20:54:00,28.1530,-82.8010,0.544,11111222 
COMPS,ioos:station:USF.COMPS:FHP:1,2019-07-05T21:54:00,28.1530,-82.8010,0.302,11111222 
COMPS,ioos:station:USF.COMPS:FHP:1,2019-07-05T22:54:00,28.1530,-82.8010,0.075,11111222 
COMPS,ioos:station:USF.COMPS:FHP:1,2019-07-05T23:54:00,28.1530,-82.8010,-0.143,11114222 
COMPS,ioos:station:USF.COMPS:FHP:1,2019-07-06T00:54:00,28.1530,-82.8010,-0.312,11114222 
COMPS,ioos:station:USF.COMPS:FHP:1,2019-07-06T01:54:00,28.1530,-82.8010,-0.404,11114222 
COMPS,ioos:station:USF.COMPS:FHP:1,2019-07-06T02:54:00,28.1530,-82.8010,-0.414,11114222 
COMPS,ioos:station:USF.COMPS:FHP:1,2019-07-06T03:54:00,28.1530,-82.8010,-0.294,11114222 
COMPS,ioos:station:USF.COMPS:FHP:1,2019-07-06T04:54:00,28.1530,-82.8010,-0.077,11114222 
COMPS,ioos:station:USF.COMPS:FHP:1,2019-07-06T05:54:00,28.1530,-82.8010,0.168,11111222 
COMPS,ioos:station:USF.COMPS:FHP:1,2019-07-06T06:54:00,28.1530,-82.8010,0.372,11111222 
COMPS,ioos:station:USF.COMPS:FHP:1,2019-07-06T07:54:00,28.1530,-82.8010,0.474,11111222 
COMPS,ioos:station:USF.COMPS:FHP:1,2019-07-06T08:54:00,28.1530,-82.8010,0.463,11111222 
COMPS,ioos:station:USF.COMPS:FHP:1,2019-07-06T09:54:00,28.1530,-82.8010,0.372,11111222 
COMPS,ioos:station:USF.COMPS:FHP:1,2019-07-06T10:54:00,28.1530,-82.8010,0.243,11111222 
COMPS,ioos:station:USF.COMPS:FHP:1,2019-07-06T11:54:00,28.1530,-82.8010,0.137,11111222 
COMPS,ioos:station:USF.COMPS:FHP:1,2019-07-06T12:54:00,28.1530,-82.8010,0.08,11111222 
COMPS,ioos:station:USF.COMPS:FHP:1,2019-07-06T13:54:00,28.1530,-82.8010,0.123,11111222 
COMPS,ioos:station:USF.COMPS:FHP:1,2019-07-06T14:54:00,28.1530,-82.8010,0.179,11111222 
COMPS,ioos:station:USF.COMPS:FHP:1,2019-07-06T15:54:00,28.1530,-82.8010,0.352,11111222 
COMPS,ioos:station:USF.COMPS:FHP:1,2019-07-06T16:54:00,28.1530,-82.8010,0.59,11111222 
COMPS,ioos:station:USF.COMPS:FHP:1,2019-07-06T17:54:00,28.1530,-82.8010,0.708,11111222 
COMPS,ioos:station:USF.COMPS:FHP:1,2019-07-06T18:54:00,28.1530,-82.8010,0.788,11111222 
COMPS,ioos:station:USF.COMPS:FHP:1,2019-07-06T19:54:00,28.1530,-82.8010,0.666,11111222 
COMPS,ioos:station:USF.COMPS:FHP:1,2019-07-06T20:54:00,28.1530,-82.8010,0.561,11111222 
COMPS,ioos:station:USF.COMPS:FHP:1,2019-07-06T21:54:00,28.1530,-82.8010,0.429,11111222 
COMPS,ioos:station:USF.COMPS:FHP:1,2019-07-06T22:54:00,28.1530,-82.8010,0.27,11111222 
COMPS,ioos:station:USF.COMPS:FHP:1,2019-07-06T23:54:00,28.1530,-82.8010,0.031,11111222 
COMPS,ioos:station:USF.COMPS:FHP:1,2019-07-07T00:54:00,28.1530,-82.8010,-0.172,11114222 
COMPS,ioos:station:USF.COMPS:FHP:1,2019-07-07T01:54:00,28.1530,-82.8010,-0.332,11114222 
COMPS,ioos:station:USF.COMPS:FHP:1,2019-07-07T02:54:00,28.1530,-82.8010,-0.395,11114222 
COMPS,ioos:station:USF.COMPS:FHP:1,2019-07-07T03:54:00,28.1530,-82.8010,-0.339,11114222 
COMPS,ioos:station:USF.COMPS:FHP:1,2019-07-07T04:54:00,28.1530,-82.8010,-0.137,11114222 
COMPS,ioos:station:USF.COMPS:FHP:1,2019-07-07T05:54:00,28.1530,-82.8010,0.053,11111222 
COMPS,ioos:station:USF.COMPS:FHP:1,2019-07-07T06:54:00,28.1530,-82.8010,0.3,11111222 
COMPS,ioos:station:USF.COMPS:FHP:1,2019-07-07T07:54:00,28.1530,-82.8010,0.477,11111222 
COMPS,ioos:station:USF.COMPS:FHP:1,2019-07-07T08:54:00,28.1530,-82.8010,0.488,11111222 
COMPS,ioos:station:USF.COMPS:FHP:1,2019-07-07T09:54:00,28.1530,-82.8010,0.43,11111222 
COMPS,ioos:station:USF.COMPS:FHP:1,2019-07-07T10:54:00,28.1530,-82.8010,0.335,11111222 
COMPS,ioos:station:USF.COMPS:FHP:1,2019-07-07T11:54:00,28.1530,-82.8010,0.206,11111222 
COMPS,ioos:station:USF.COMPS:FHP:1,2019-07-07T12:54:00,28.1530,-82.8010,0.106,11111222 
COMPS,ioos:station:USF.COMPS:FHP:1,2019-07-07T13:54:00,28.1530,-82.8010,0.061,11111222 
COMPS,ioos:station:USF.COMPS:FHP:1,2019-07-07T14:54:00,28.1530,-82.8010,0.043,11111222 
COMPS,ioos:station:USF.COMPS:FHP:1,2019-07-07T15:54:00,28.1530,-82.8010,0.161,11111222 
COMPS,ioos:station:USF.COMPS:FHP:1,2019-07-07T16:54:00,28.1530,-82.8010,0.323,11111222 
COMPS,ioos:station:USF.COMPS:FHP:1,2019-07-07T17:54:00,28.1530,-82.8010,0.486,11111222 
COMPS,ioos:station:USF.COMPS:FHP:1,2019-07-07T18:54:00,28.1530,-82.8010,0.604,11111222 
COMPS,ioos:station:USF.COMPS:FHP:1,2019-07-07T19:54:00,28.1530,-82.8010,0.615,11111222 
COMPS,ioos:station:USF.COMPS:FHP:1,2019-07-07T20:54:00,28.1530,-82.8010,0.61,11111222 
COMPS,ioos:station:USF.COMPS:FHP:1,2019-07-07T21:54:00,28.1530,-82.8010,0.528,11111222 
COMPS,ioos:station:USF.COMPS:FHP:1,2019-07-07T22:54:00,28.1530,-82.8010,0.38,11111222 
COMPS,ioos:station:USF.COMPS:FHP:1,2019-07-07T23:54:00,28.1530,-82.8010,0.247,11111222 
COMPS,ioos:station:USF.COMPS:FHP:1,2019-07-08T00:54:00,28.1530,-82.8010,0.09,11111222 
COMPS,ioos:station:USF.COMPS:FHP:1,2019-07-08T01:54:00,28.1530,-82.8010,-0.109,11114222 
COMPS,ioos:station:USF.COMPS:FHP:1,2019-07-08T02:54:00,28.1530,-82.8010,-0.247,11114222 
COMPS,ioos:station:USF.COMPS:FHP:1,2019-07-08T03:54:00,28.1530,-82.8010,-0.234,11114222 
COMPS,ioos:station:USF.COMPS:FHP:1,2019-07-08T04:54:00,28.1530,-82.8010,-0.073,11114222 
COMPS,ioos:station:USF.COMPS:FHP:1,2019-07-08T05:54:00,28.1530,-82.8010,0.077,11111222 
COMPS,ioos:station:USF.COMPS:FHP:1,2019-07-08T06:54:00,28.1530,-82.8010,0.24,11111222 
COMPS,ioos:station:USF.COMPS:FHP:1,2019-07-08T07:54:00,28.1530,-82.8010,0.398,11111222 
COMPS,ioos:station:USF.COMPS:FHP:1,2019-07-08T08:54:00,28.1530,-82.8010,0.49,11111222 
COMPS,ioos:station:USF.COMPS:FHP:1,2019-07-08T09:54:00,28.1530,-82.8010,0.485,11111222 
COMPS,ioos:station:USF.COMPS:FHP:1,2019-07-08T10:54:00,28.1530,-82.8010,0.444,11111222 
COMPS,ioos:station:USF.COMPS:FHP:1,2019-07-08T11:54:00,28.1530,-82.8010,0.332,11111222 
COMPS,ioos:station:USF.COMPS:FHP:1,2019-07-08T12:54:00,28.1530,-82.8010,0.263,11111222 
COMPS,ioos:station:USF.COMPS:FHP:1,2019-07-08T13:54:00,28.1530,-82.8010,0.102,11111222 
COMPS,ioos:station:USF.COMPS:FHP:1,2019-07-08T14:54:00,28.1530,-82.8010,0.066,11111222 
COMPS,ioos:station:USF.COMPS:FHP:1,2019-07-08T15:54:00,28.1530,-82.8010,0.023,11111222 
COMPS,ioos:station:USF.COMPS:FHP:1,2019-07-08T16:54:00,28.1530,-82.8010,0.027,11111222 
COMPS,ioos:station:USF.COMPS:FHP:1,2019-07-08T17:54:00,28.1530,-82.8010,0.157,11111222 
COMPS,ioos:station:USF.COMPS:FHP:1,2019-07-08T18:54:00,28.1530,-82.8010,0.302,11111222 
COMPS,ioos:station:USF.COMPS:FHP:1,2019-07-08T19:54:00,28.1530,-82.8010,0.413,11111222 
COMPS,ioos:station:USF.COMPS:FHP:1,2019-07-08T20:54:00,28.1530,-82.8010,0.515,11111222 
COMPS,ioos:station:USF.COMPS:FHP:1,2019-07-08T21:54:00,28.1530,-82.8010,0.54,11111222 
COMPS,ioos:station:USF.COMPS:FHP:1,2019-07-08T22:54:00,28.1530,-82.8010,0.486,11111222 
COMPS,ioos:station:USF.COMPS:FHP:1,2019-07-08T23:54:00,28.1530,-82.8010,0.382,11111222 
COMPS,ioos:station:USF.COMPS:FHP:1,2019-07-09T00:54:00,28.1530,-82.8010,0.251,11111222 
COMPS,ioos:station:USF.COMPS:FHP:1,2019-07-09T01:54:00,28.1530,-82.8010,0.106,11111222 
COMPS,ioos:station:USF.COMPS:FHP:1,2019-07-09T02:54:00,28.1530,-82.8010,-0.029,11114222 
COMPS,ioos:station:USF.COMPS:FHP:1,2019-07-09T03:54:00,28.1530,-82.8010,-0.08,11114222 
COMPS,ioos:station:USF.COMPS:FHP:1,2019-07-09T04:54:00,28.1530,-82.8010,-0.091,11114222 
COMPS,ioos:station:USF.COMPS:FHP:1,2019-07-09T05:54:00,28.1530,-82.8010,-0.012,11114222 
COMPS,ioos:station:USF.COMPS:FHP:1,2019-07-09T06:54:00,28.1530,-82.8010,0.155,11111222 
COMPS,ioos:station:USF.COMPS:FHP:1,2019-07-09T07:54:00,28.1530,-82.8010,0.353,11111222 
COMPS,ioos:station:USF.COMPS:FHP:1,2019-07-09T08:54:00,28.1530,-82.8010,0.503,11111222 
COMPS,ioos:station:USF.COMPS:FHP:1,2019-07-09T09:54:00,28.1530,-82.8010,0.589,11111222 
COMPS,ioos:station:USF.COMPS:FHP:1,2019-07-09T10:54:00,28.1530,-82.8010,0.562,11111222 
COMPS,ioos:station:USF.COMPS:FHP:1,2019-07-09T11:54:00,28.1530,-82.8010,0.483,11111222 
COMPS,ioos:station:USF.COMPS:FHP:1,2019-07-09T12:54:00,28.1530,-82.8010,0.392,11111222 
COMPS,ioos:station:USF.COMPS:FHP:1,2019-07-09T13:54:00,28.1530,-82.8010,0.278,11111222 
COMPS,ioos:station:USF.COMPS:FHP:1,2019-07-09T14:54:00,28.1530,-82.8010,0.151,11111222 
COMPS,ioos:station:USF.COMPS:FHP:1,2019-07-09T15:54:00,28.1530,-82.8010,0.048,11111222 
COMPS,ioos:station:USF.COMPS:FHP:1,2019-07-09T16:54:00,28.1530,-82.8010,-0.021,11114222 
COMPS,ioos:station:USF.COMPS:FHP:1,2019-07-09T17:54:00,28.1530,-82.8010,-0.033,11114222 
COMPS,ioos:station:USF.COMPS:FHP:1,2019-07-09T18:54:00,28.1530,-82.8010,0.088,11111222 
COMPS,ioos:station:USF.COMPS:FHP:1,2019-07-09T19:54:00,28.1530,-82.8010,0.219,11111222 
COMPS,ioos:station:USF.COMPS:FHP:1,2019-07-09T20:54:00,28.1530,-82.8010,0.327,11111222 
COMPS,ioos:station:USF.COMPS:FHP:1,2019-07-09T21:54:00,28.1530,-82.8010,0.422,11111222 
COMPS,ioos:station:USF.COMPS:FHP:1,2019-07-09T22:54:00,28.1530,-82.8010,0.404,11111222 
COMPS,ioos:station:USF.COMPS:FHP:1,2019-07-09T23:54:00,28.1530,-82.8010,0.369,11111222 
COMPS,ioos:station:USF.COMPS:FHP:1,2019-07-10T00:54:00,28.1530,-82.8010,0.272,11111222 
COMPS,ioos:station:USF.COMPS:FHP:1,2019-07-10T01:54:00,28.1530,-82.8010,0.245,11111222 
COMPS,ioos:station:USF.COMPS:FHP:1,2019-07-10T02:54:00,28.1530,-82.8010,0.123,11111222 
COMPS,ioos:station:USF.COMPS:FHP:1,2019-07-10T03:54:00,28.1530,-82.8010,-0.036,11114222 
COMPS,ioos:station:USF.COMPS:FHP:1,2019-07-10T04:48:00,28.1530,-82.8010,-0.094,11114222 
COMPS,ioos:station:USF.COMPS:FHP:1,2019-07-10T05:54:00,28.1530,-82.8010,-0.019,11114222 
COMPS,ioos:station:USF.COMPS:FHP:1,2019-07-10T06:54:00,28.1530,-82.8010,0.085,11111222 
COMPS,ioos:station:USF.COMPS:FHP:1,2019-07-10T07:54:00,28.1530,-82.8010,0.207,11111222 
COMPS,ioos:station:USF.COMPS:FHP:1,2019-07-10T08:54:00,28.1530,-82.8010,0.384,11111222 
COMPS,ioos:station:USF.COMPS:FHP:1,2019-07-10T09:54:00,28.1530,-82.8010,0.501,11111222 
COMPS,ioos:station:USF.COMPS:FHP:1,2019-07-10T10:54:00,28.1530,-82.8010,0.569,11111222 
COMPS,ioos:station:USF.COMPS:FHP:1,2019-07-10T11:54:00,28.1530,-82.8010,0.547,11111222 
COMPS,ioos:station:USF.COMPS:FHP:1,2019-07-10T12:54:00,28.1530,-82.8010,0.461,11111222 
COMPS,ioos:station:USF.COMPS:FHP:1,2019-07-10T13:54:00,28.1530,-82.8010,0.352,11111222 
COMPS,ioos:station:USF.COMPS:FHP:1,2019-07-10T14:54:00,28.1530,-82.8010,0.28,11111222 
COMPS,ioos:station:USF.COMPS:FHP:1,2019-07-10T15:54:00,28.1530,-82.8010,0.073,11111222 
COMPS,ioos:station:USF.COMPS:FHP:1,2019-07-10T16:54:00,28.1530,-82.8010,-0.016,11114222 
COMPS,ioos:station:USF.COMPS:FHP:1,2019-07-10T17:54:00,28.1530,-82.8010,-0.041,11114222 
COMPS,ioos:station:USF.COMPS:FHP:1,2019-07-10T18:54:00,28.1530,-82.8010,-0.05,11114222 
COMPS,ioos:station:USF.COMPS:FHP:1,2019-07-10T19:54:00,28.1530,-82.8010,0.024,11111222 
COMPS,ioos:station:USF.COMPS:FHP:1,2019-07-10T20:54:00,28.1530,-82.8010,0.141,11111222 
COMPS,ioos:station:USF.COMPS:FHP:1,2019-07-10T21:54:00,28.1530,-82.8010,0.259,11111222 
COMPS,ioos:station:USF.COMPS:FHP:1,2019-07-10T22:54:00,28.1530,-82.8010,0.33,11111222 
COMPS,ioos:station:USF.COMPS:FHP:1,2019-07-10T23:54:00,28.1530,-82.8010,0.377,11111222 
COMPS,ioos:station:USF.COMPS:FHP:1,2019-07-11T00:54:00,28.1530,-82.8010,0.368,11111222 
COMPS,ioos:station:USF.COMPS:FHP:1,2019-07-11T01:54:00,28.1530,-82.8010,0.331,11111222 
COMPS,ioos:station:USF.COMPS:FHP:1,2019-07-11T02:54:00,28.1530,-82.8010,0.25,11111222 
COMPS,ioos:station:USF.COMPS:FHP:1,2019-07-11T03:54:00,28.1530,-82.8010,0.127,11111222 
COMPS,ioos:station:USF.COMPS:FHP:1,2019-07-11T04:54:00,28.1530,-82.8010,0.073,11111222 
COMPS,ioos:station:USF.COMPS:FHP:1,2019-07-11T05:54:00,28.1530,-82.8010,0.048,11111222 
COMPS,ioos:station:USF.COMPS:FHP:1,2019-07-11T06:54:00,28.1530,-82.8010,0.073,11111222 
COMPS,ioos:station:USF.COMPS:FHP:1,2019-07-11T07:54:00,28.1530,-82.8010,0.185,11111222 
COMPS,ioos:station:USF.COMPS:FHP:1,2019-07-11T08:54:00,28.1530,-82.8010,0.35,11111222 
COMPS,ioos:station:USF.COMPS:FHP:1,2019-07-11T09:54:00,28.1530,-82.8010,0.476,11111222 
COMPS,ioos:station:USF.COMPS:FHP:1,2019-07-11T10:54:00,28.1530,-82.8010,0.544,11111222 
COMPS,ioos:station:USF.COMPS:FHP:1,2019-07-11T11:54:00,28.1530,-82.8010,0.559,11111222 
COMPS,ioos:station:USF.COMPS:FHP:1,2019-07-11T12:54:00,28.1530,-82.8010,0.556,11111222 
COMPS,ioos:station:USF.COMPS:FHP:1,2019-07-11T13:54:00,28.1530,-82.8010,0.492,11111222 
COMPS,ioos:station:USF.COMPS:FHP:1,2019-07-11T14:54:00,28.1530,-82.8010,0.321,11111222 
COMPS,ioos:station:USF.COMPS:FHP:1,2019-07-11T15:54:00,28.1530,-82.8010,0.174,11111222 
COMPS,ioos:station:USF.COMPS:FHP:1,2019-07-11T16:54:00,28.1530,-82.8010,0.072,11111222 
COMPS,ioos:station:USF.COMPS:FHP:1,2019-07-11T17:54:00,28.1530,-82.8010,0.005,11111222 
COMPS,ioos:station:USF.COMPS:FHP:1,2019-07-11T18:54:00,28.1530,-82.8010,-0.026,11114222 
COMPS,ioos:station:USF.COMPS:FHP:1,2019-07-11T19:54:00,28.1530,-82.8010,-0.052,11114222 
COMPS,ioos:station:USF.COMPS:FHP:1,2019-07-11T20:54:00,28.1530,-82.8010,-0.034,11114222 
COMPS,ioos:station:USF.COMPS:FHP:1,2019-07-11T21:54:00,28.1530,-82.8010,0.077,11111222 
COMPS,ioos:station:USF.COMPS:FHP:1,2019-07-11T22:54:00,28.1530,-82.8010,0.187,11111222 
COMPS,ioos:station:USF.COMPS:FHP:1,2019-07-11T23:54:00,28.1530,-82.8010,0.26,11111222 
COMPS,ioos:station:USF.COMPS:FHP:1,2019-07-12T00:54:00,28.1530,-82.8010,0.304,11111222 
COMPS,ioos:station:USF.COMPS:FHP:1,2019-07-12T01:54:00,28.1530,-82.8010,0.276,11111222 
COMPS,ioos:station:USF.COMPS:FHP:1,2019-07-12T02:54:00,28.1530,-82.8010,0.304,11111222 
COMPS,ioos:station:USF.COMPS:FHP:1,2019-07-12T03:54:00,28.1530,-82.8010,0.295,11111222 
COMPS,ioos:station:USF.COMPS:FHP:1,2019-07-12T04:54:00,28.1530,-82.8010,0.3,11111222 
COMPS,ioos:station:USF.COMPS:FHP:1,2019-07-12T05:54:00,28.1530,-82.8010,0.245,11111222 
COMPS,ioos:station:USF.COMPS:FHP:1,2019-07-12T06:54:00,28.1530,-82.8010,0.267,11111222 
COMPS,ioos:station:USF.COMPS:FHP:1,2019-07-12T07:54:00,28.1530,-82.8010,0.29,11111222 